User: anonymous   Login
Location: La Comballaz
(46.3780°N, 7.0817°E)
Time: 17:40:15
(UTC+00:00)
Language:

Cosmos 1825 - Orbit

View from above orbital plane
View from above orbital plane
View from above satellite
View from above satellite

Ground track
Ground track

The orbit data is extracted from the following two-line orbital elements,

1 17566U 87024A   20195.34586740  .00000280  00000-0  11459-4 0  9994
2 17566  82.5045 256.3224 0002121 256.3368 103.7631 15.20073495824241
Epoch (UTC): 13 July 2020 08:18:02
Eccentricity: 0.0002121
inclination: 82.5045°
perigee height: 504 km
apogee height: 507 km
right ascension of ascending node: 256.3224°
argument of perigee: 256.3368°
revolutions per day: 15.20073495
mean anomaly at epoch: 103.7631°
orbit number at epoch: 82424

The dashed part of the orbit path shows where the satellite is in the earth's shadow,  

DLR